When you browse on this site, cookies collect data to enhance your experience and personalize the content and advertising you see.
Visit our Privacy Policy to learn more. By continuing to use the site, you agree to this use of cookies and data.
  • In Romania
  • List of Countries
  • For 7 days
  • Water Temperature
  • Satellite Maps
  • Weather Map
  • Weather Widgets
  • user-avatar
    Login

    Hourly Weather Dunedin

    Today, 20 May, Monday

    Time Temperature Precipitation Wind Pressure Humidity
    00:00 +8°C° 0 mm 11 mps 747 mmHg 69%
    01:00 +8°C° 0 mm 11 mps 748 mmHg 70%
    02:00 +8°C° 0 mm 11 mps 748 mmHg 72%
    03:00 +8°C° 0 mm 10 mps 748 mmHg 73%
    04:00 +8°C° 0 mm 10 mps 749 mmHg 73%
    05:00 +8°C° 0 mm 11 mps 749 mmHg 74%
    06:00 +8°C° 0 mm 10 mps 749 mmHg 74%
    07:00 +8°C° 0 mm 10 mps 750 mmHg 74%
    08:00 +8°C° 0 mm 9 mps 750 mmHg 74%
    09:00 +10°C° 0 mm 9 mps 750 mmHg 71%
    10:00 +10°C° 0 mm 9 mps 751 mmHg 69%
    11:00 +11°C° 0 mm 8 mps 750 mmHg 67%
    12:00 +11°C° 0 mm 8 mps 751 mmHg 68%
    13:00 +12°C° 0 mm 8 mps 751 mmHg 68%
    14:00 +12°C° 0 mm 7 mps 751 mmHg 68%
    15:00 +11°C° 0 mm 7 mps 751 mmHg 72%
    16:00 +10°C° 0 mm 7 mps 751 mmHg 76%
    17:00 +9°C° 0 mm 6 mps 752 mmHg 80%
    18:00 +9°C° 0 mm 5 mps 752 mmHg 82%
    19:00 +8°C° 0 mm 5 mps 752 mmHg 84%
    20:00 +8°C° 0 mm 5 mps 753 mmHg 86%
    21:00 +8°C° 0 mm 4 mps 753 mmHg 88%
    22:00 +7°C° 0 mm 4 mps 753 mmHg 90%
    23:00 +8°C° 0 mm 3 mps 753 mmHg 92%

    Tomorrow, 21 May, Tuesday

    Time Temperature Precipitation Wind Pressure Humidity
    00:00 +8°C° 0 mm 3 mps 753 mmHg 92%
    01:00 +7°C° 0 mm 3 mps 753 mmHg 93%
    02:00 +7°C° 0 mm 3 mps 753 mmHg 93%
    03:00 +7°C° 0 mm 3 mps 754 mmHg 93%
    04:00 +7°C° 0 mm 3 mps 754 mmHg 93%
    05:00 +7°C° 0 mm 3 mps 754 mmHg 93%
    06:00 +7°C° 0 mm 3 mps 754 mmHg 91%
    07:00 +7°C° 0 mm 3 mps 754 mmHg 89%
    08:00 +7°C° 0 mm 3 mps 755 mmHg 88%
    09:00 +9°C° 0 mm 2 mps 754 mmHg 80%
    10:00 +12°C° 0 mm 2 mps 754 mmHg 73%
    11:00 +13°C° 0 mm 1 mps 754 mmHg 66%
    12:00 +13°C° 0 mm 1 mps 754 mmHg 66%
    13:00 +13°C° 0 mm 1 mps 754 mmHg 66%
    14:00 +14°C° 0 mm 1 mps 753 mmHg 66%
    15:00 +12°C° 0 mm 1 mps 754 mmHg 74%
    16:00 +10°C° 0 mm 1 mps 754 mmHg 82%
    17:00 +9°C° 0 mm 1 mps 754 mmHg 90%
    18:00 +8°C° 0 mm 2 mps 754 mmHg 91%
    19:00 +8°C° 0 mm 2 mps 754 mmHg 93%
    20:00 +7°C° 0 mm 2 mps 754 mmHg 94%
    21:00 +7°C° 0 mm 3 mps 754 mmHg 94%
    22:00 +7°C° 0 mm 3 mps 753 mmHg 93%
    23:00 +7°C° 0 mm 3 mps 753 mmHg 93%

    Day after tomorrow, 22 May, Wednesday

    Time Temperature Precipitation Wind Pressure Humidity
    00:00 +7°C° 0 mm 3 mps 753 mmHg 90%
    01:00 +7°C° 0 mm 3 mps 753 mmHg 87%
    02:00 +8°C° 0 mm 2 mps 752 mmHg 85%
    03:00 +8°C° 0.2 mm 2 mps 752 mmHg 84%
    04:00 +8°C° 0.2 mm 2 mps 752 mmHg 83%
    05:00 +8°C° 0.2 mm 2 mps 751 mmHg 81%
    06:00 +8°C° 0 mm 2 mps 751 mmHg 80%
    07:00 +8°C° 0 mm 3 mps 751 mmHg 78%
    08:00 +8°C° 0 mm 3 mps 751 mmHg 76%
    09:00 +11°C° 0 mm 3 mps 751 mmHg 70%
    10:00 +13°C° 0 mm 3 mps 751 mmHg 64%
    11:00 +16°C° 0 mm 3 mps 751 mmHg 59%
    12:00 +16°C° 0 mm 3 mps 751 mmHg 60%
    13:00 +16°C° 0 mm 3 mps 751 mmHg 62%
    14:00 +17°C° 0 mm 3 mps 751 mmHg 64%
    15:00 +14°C° 0 mm 3 mps 752 mmHg 72%
    16:00 +13°C° 0 mm 3 mps 752 mmHg 79%
    17:00 +11°C° 0 mm 3 mps 753 mmHg 87%
    18:00 +11°C° 0 mm 3 mps 753 mmHg 88%
    19:00 +10°C° 0 mm 3 mps 753 mmHg 89%
    20:00 +10°C° 0 mm 3 mps 754 mmHg 90%
    21:00 +10°C° 0 mm 3 mps 754 mmHg 89%
    22:00 +10°C° 0 mm 3 mps 754 mmHg 88%
    23:00 +10°C° 0 mm 2 mps 755 mmHg 87%

    23 May, Thursday

    Time Temperature Precipitation Wind Pressure Humidity
    00:00 +10°C° 0 mm 2 mps 755 mmHg 85%
    01:00 +9°C° 0 mm 3 mps 755 mmHg 82%
    02:00 +9°C° 0 mm 3 mps 755 mmHg 80%
    03:00 +10°C° 0 mm 3 mps 755 mmHg 78%
    04:00 +10°C° 0 mm 2 mps 755 mmHg 76%
    05:00 +10°C° 0 mm 2 mps 756 mmHg 73%
    06:00 +10°C° 0 mm 3 mps 756 mmHg 74%
    07:00 +10°C° 0 mm 3 mps 757 mmHg 75%
    08:00 +10°C° 0 mm 3 mps 757 mmHg 75%
    09:00 +11°C° 0 mm 3 mps 757 mmHg 73%
    10:00 +12°C° 0 mm 3 mps 758 mmHg 70%
    11:00 +13°C° 0 mm 3 mps 758 mmHg 68%
    12:00 +14°C° 0 mm 2 mps 757 mmHg 67%
    13:00 +15°C° 0 mm 1 mps 757 mmHg 66%
    14:00 +15°C° 0 mm 1 mps 757 mmHg 66%
    15:00 +13°C° 0 mm 1 mps 757 mmHg 74%
    16:00 +12°C° 0 mm 1 mps 757 mmHg 82%
    17:00 +9°C° 0 mm 2 mps 757 mmHg 90%
    18:00 +9°C° 0 mm 2 mps 758 mmHg 91%
    19:00 +9°C° 0 mm 2 mps 758 mmHg 91%
    20:00 +8°C° 0 mm 3 mps 758 mmHg 92%
    21:00 +8°C° 0 mm 3 mps 758 mmHg 91%
    22:00 +8°C° 0 mm 3 mps 757 mmHg 90%
    23:00 +8°C° 0 mm 3 mps 757 mmHg 89%

    24 May, Friday

    Time Temperature Precipitation Wind Pressure Humidity
    00:00 +8°C° 0 mm 3 mps 757 mmHg 87%
    01:00 +8°C° 0 mm 3 mps 757 mmHg 86%
    02:00 +8°C° 0 mm 2 mps 756 mmHg 84%
    03:00 +8°C° 0 mm 2 mps 756 mmHg 83%
    04:00 +8°C° 0 mm 2 mps 756 mmHg 81%
    05:00 +8°C° 0 mm 2 mps 756 mmHg 80%
    06:00 +8°C° 0 mm 2 mps 756 mmHg 79%
    07:00 +8°C° 0 mm 2 mps 755 mmHg 78%
    08:00 +8°C° 0 mm 2 mps 755 mmHg 78%
    09:00 +10°C° 0 mm 2 mps 755 mmHg 72%
    10:00 +13°C° 0 mm 2 mps 755 mmHg 66%
    11:00 +14°C° 0 mm 3 mps 754 mmHg 60%
    12:00 +14°C° 0 mm 3 mps 754 mmHg 59%
    13:00 +14°C° 0 mm 3 mps 753 mmHg 59%
    14:00 +16°C° 0 mm 3 mps 753 mmHg 58%
    15:00 +13°C° 0 mm 3 mps 753 mmHg 64%
    16:00 +12°C° 0 mm 3 mps 753 mmHg 70%
    17:00 +10°C° 0 mm 2 mps 753 mmHg 76%
    18:00 +10°C° 0 mm 2 mps 753 mmHg 76%
    19:00 +10°C° 0 mm 2 mps 753 mmHg 76%
    20:00 +10°C° 0 mm 2 mps 753 mmHg 76%
    21:00 +10°C° 0 mm 2 mps 753 mmHg 76%
    22:00 +10°C° 0 mm 2 mps 753 mmHg 76%
    23:00 +10°C° 0 mm 2 mps 753 mmHg 76%

    25 May, Saturday

    Time Temperature Precipitation Wind Pressure Humidity
    00:00 +10°C° 0 mm 2 mps 752 mmHg 77%
    01:00 +10°C° 0 mm 2 mps 752 mmHg 78%
    02:00 +10°C° 0 mm 2 mps 752 mmHg 78%
    03:00 +10°C° 0 mm 2 mps 751 mmHg 78%
    04:00 +10°C° 0 mm 2 mps 751 mmHg 78%
    05:00 +10°C° 0 mm 2 mps 751 mmHg 78%
    06:00 +10°C° 0 mm 3 mps 751 mmHg 74%
    07:00 +11°C° 0 mm 3 mps 751 mmHg 71%
    08:00 +11°C° 0 mm 3 mps 750 mmHg 67%
    09:00 +12°C° 0 mm 3 mps 750 mmHg 66%
    10:00 +13°C° 0 mm 3 mps 749 mmHg 64%
    11:00 +14°C° 0 mm 3 mps 748 mmHg 63%
    12:00 +14°C° 0 mm 4 mps 747 mmHg 62%
    13:00 +15°C° 0 mm 5 mps 746 mmHg 60%
    14:00 +15°C° 0 mm 5 mps 745 mmHg 58%
    15:00 +14°C° 0 mm 5 mps 745 mmHg 60%
    16:00 +14°C° 0 mm 5 mps 744 mmHg 61%
    17:00 +13°C° 0 mm 5 mps 744 mmHg 63%
    18:00 +12°C° 0 mm 4 mps 744 mmHg 65%
    19:00 +12°C° 0 mm 4 mps 744 mmHg 67%
    20:00 +11°C° 0 mm 3 mps 744 mmHg 70%
    21:00 +11°C° 0 mm 4 mps 745 mmHg 74%
    22:00 +10°C° 0 mm 5 mps 746 mmHg 78%
    23:00 +10°C° 0 mm 6 mps 747 mmHg 82%
    Show more